TimeCDT,TemperatureF,Dew PointF,Humidity,Sea Level PressureIn,VisibilityMPH,Wind Direction,Wind SpeedMPH,Gust SpeedMPH,PrecipitationIn,Events,Conditions,WindDirDegrees,DateUTC
12:53 AM,71.1,64.9,81,29.91,10.0,NE,10.4,-,N/A,,Overcast,50,2013-05-03 05:53:00
1:53 AM,70.0,66.0,87,29.89,10.0,NE,8.1,-,N/A,,Mostly Cloudy,50,2013-05-03 06:53:00
2:53 AM,70.0,64.9,84,29.88,10.0,ENE,8.1,-,N/A,,Overcast,70,2013-05-03 07:53:00
3:01 AM,69.8,64.4,83,29.89,10.0,ENE,10.4,-,N/A,,Overcast,60,2013-05-03 08:01:00
3:23 AM,69.8,66.2,88,29.89,10.0,ENE,9.2,-,N/A,,Overcast,70,2013-05-03 08:23:00
3:53 AM,70.0,64.9,84,29.88,10.0,ENE,6.9,-,N/A,,Overcast,60,2013-05-03 08:53:00
4:42 AM,69.8,66.2,88,29.89,10.0,ENE,6.9,-,N/A,,Overcast,70,2013-05-03 09:42:00
4:53 AM,70.0,66.0,87,29.87,10.0,ENE,9.2,-,N/A,,Overcast,60,2013-05-03 09:53:00
5:06 AM,69.8,66.2,88,29.88,10.0,ENE,11.5,-,N/A,,Overcast,60,2013-05-03 10:06:00
5:19 AM,69.8,66.2,88,29.88,10.0,ENE,10.4,-,N/A,,Mostly Cloudy,60,2013-05-03 10:19:00
5:53 AM,70.0,64.9,84,29.88,10.0,ENE,8.1,-,N/A,,Scattered Clouds,70,2013-05-03 10:53:00
6:22 AM,69.8,66.2,88,29.90,10.0,East,5.8,-,N/A,,Overcast,90,2013-05-03 11:22:00
6:42 AM,69.8,66.2,88,29.91,10.0,East,5.8,-,N/A,,Overcast,90,2013-05-03 11:42:00
6:53 AM,70.0,66.0,87,29.89,10.0,East,5.8,-,N/A,,Overcast,90,2013-05-03 11:53:00
7:41 AM,69.8,66.2,88,29.91,10.0,Calm,Calm,-,N/A,,Overcast,0,2013-05-03 12:41:00
7:48 AM,71.6,66.2,83,29.91,10.0,East,5.8,-,N/A,,Overcast,90,2013-05-03 12:48:00
7:53 AM,71.1,66.0,84,29.89,10.0,East,5.8,-,N/A,,Overcast,80,2013-05-03 12:53:00
7:59 AM,71.6,66.2,83,29.91,10.0,East,5.8,-,N/A,,Overcast,80,2013-05-03 12:59:00
8:03 AM,71.6,66.2,83,29.91,10.0,East,4.6,-,N/A,,Overcast,90,2013-05-03 13:03:00
8:15 AM,71.6,64.4,78,29.92,10.0,ESE,3.5,-,N/A,,Overcast,110,2013-05-03 13:15:00
8:34 AM,66.2,62.6,88,29.93,4.0,WNW,24.2,-,0.02,Rain,Rain,290,2013-05-03 13:34:00
8:39 AM,66.2,62.6,88,29.93,2.5,West,23.0,-,0.03,Rain,Light Rain,280,2013-05-03 13:39:00
8:53 AM,64.9,62.1,90,29.91,2.5,WNW,24.2,-,0.05,Rain,Light Rain,290,2013-05-03 13:53:00
9:22 AM,64.4,62.6,94,29.93,4.0,NW,24.2,-,0.04,Rain,Light Rain,310,2013-05-03 14:22:00
9:53 AM,64.0,61.0,90,29.92,4.0,WNW,23.0,-,0.04,Rain,Light Rain,300,2013-05-03 14:53:00
10:53 AM,64.0,60.1,87,29.93,10.0,NW,20.7,-,0.00,,Overcast,320,2013-05-03 15:53:00
11:27 AM,64.4,60.8,88,29.94,10.0,NW,16.1,-,N/A,,Overcast,310,2013-05-03 16:27:00
11:53 AM,64.0,60.1,87,29.92,10.0,NW,15.0,-,N/A,,Overcast,320,2013-05-03 16:53:00
12:25 PM,64.4,59.0,83,29.93,10.0,NW,15.0,-,N/A,,Overcast,310,2013-05-03 17:25:00
12:53 PM,64.0,59.0,84,29.91,10.0,WNW,20.7,-,N/A,,Overcast,300,2013-05-03 17:53:00
1:53 PM,63.0,57.9,84,29.91,10.0,NW,20.7,-,N/A,,Overcast,310,2013-05-03 18:53:00
2:53 PM,63.0,55.9,78,29.91,10.0,NW,23.0,-,N/A,,Overcast,310,2013-05-03 19:53:00
3:45 PM,62.6,55.4,77,29.91,10.0,NW,21.9,28.8,N/A,,Overcast,320,2013-05-03 20:45:00
3:53 PM,61.0,54.0,78,29.90,10.0,NW,20.7,-,N/A,,Overcast,320,2013-05-03 20:53:00
4:53 PM,61.0,54.0,78,29.90,10.0,NNW,24.2,29.9,N/A,,Overcast,330,2013-05-03 21:53:00
5:53 PM,61.0,52.0,72,29.91,10.0,NNW,24.2,29.9,N/A,,Overcast,330,2013-05-03 22:53:00
6:53 PM,59.0,52.0,78,29.92,10.0,NW,25.3,31.1,N/A,,Overcast,320,2013-05-03 23:53:00
7:53 PM,57.0,48.9,74,29.96,10.0,NW,28.8,35.7,N/A,,Overcast,320,2013-05-04 00:53:00
8:53 PM,55.0,46.9,74,29.99,10.0,NNW,31.1,38.0,N/A,,Overcast,340,2013-05-04 01:53:00
9:53 PM,54.0,45.0,72,30.02,10.0,NNW,27.6,39.1,N/A,,Mostly Cloudy,340,2013-05-04 02:53:00
10:04 PM,53.6,44.6,72,30.04,10.0,NNW,28.8,36.8,N/A,,Scattered Clouds,340,2013-05-04 03:04:00
10:53 PM,54.0,43.0,66,30.03,10.0,North,24.2,33.4,N/A,,Clear,350,2013-05-04 03:53:00
11:53 PM,53.1,43.0,69,30.02,10.0,North,24.2,32.2,N/A,,Clear,350,2013-05-04 04:53:00